Year,Month,Day,Hour,Minute,Value (Times are PST for windspeed in km/hr)
2009,07,06,00,00,25.70
2009,07,06,00,01,16.10
2009,07,06,00,02,19.30
2009,07,06,00,03,17.70
2009,07,06,00,04,11.30
2009,07,06,00,05,17.70
2009,07,06,00,06,14.50
2009,07,06,00,07,20.90
2009,07,06,00,08,20.90
2009,07,06,00,09,9.70
2009,07,06,00,10,17.70
2009,07,06,00,11,14.50
2009,07,06,00,12,11.30
2009,07,06,00,13,14.50
2009,07,06,00,14,17.70
2009,07,06,00,15,14.50
2009,07,06,00,16,17.70
2009,07,06,00,17,16.10
2009,07,06,00,18,24.10
2009,07,06,00,19,17.70
2009,07,06,00,20,17.70
2009,07,06,00,21,19.30
2009,07,06,00,22,8.00
2009,07,06,00,23,11.30
2009,07,06,00,24,20.90
2009,07,06,00,25,11.30
2009,07,06,00,26,20.90
2009,07,06,00,27,20.90
2009,07,06,00,28,17.70
2009,07,06,00,29,19.30
2009,07,06,00,30,16.10
2009,07,06,00,31,12.90
2009,07,06,00,32,9.70
2009,07,06,00,33,8.00
2009,07,06,00,34,9.70
2009,07,06,00,35,9.70
2009,07,06,00,36,16.10
2009,07,06,00,37,11.30
2009,07,06,00,38,11.30
2009,07,06,00,39,12.90
2009,07,06,00,40,12.90
2009,07,06,00,41,17.70
2009,07,06,00,42,12.90
2009,07,06,00,43,16.10
2009,07,06,00,44,20.90
2009,07,06,00,45,17.70
2009,07,06,00,46,19.30
2009,07,06,00,47,12.90
2009,07,06,00,48,9.70
2009,07,06,00,49,19.30
2009,07,06,00,50,19.30
2009,07,06,00,51,11.30
2009,07,06,00,52,12.90
2009,07,06,00,53,19.30
2009,07,06,00,54,19.30
2009,07,06,00,55,12.90
2009,07,06,00,56,16.10
2009,07,06,00,57,14.50
2009,07,06,00,58,17.70
2009,07,06,00,59,12.90
2009,07,06,01,00,11.30
2009,07,06,01,01,14.50
2009,07,06,01,02,11.30
2009,07,06,01,03,11.30
2009,07,06,01,04,9.70
2009,07,06,01,05,12.90
2009,07,06,01,06,12.90
2009,07,06,01,07,9.70
2009,07,06,01,08,11.30
2009,07,06,01,09,16.10
2009,07,06,01,10,11.30
2009,07,06,01,11,12.90
2009,07,06,01,12,14.50
2009,07,06,01,13,12.90
2009,07,06,01,14,12.90
2009,07,06,01,15,12.90
2009,07,06,01,16,11.30
2009,07,06,01,17,9.70
2009,07,06,01,18,14.50
2009,07,06,01,19,9.70
2009,07,06,01,20,3.20
2009,07,06,01,21,11.30
2009,07,06,01,22,11.30
2009,07,06,01,23,19.30
2009,07,06,01,24,12.90
2009,07,06,01,25,14.50
2009,07,06,01,26,14.50
2009,07,06,01,27,12.90
2009,07,06,01,28,11.30
2009,07,06,01,29,6.40
2009,07,06,01,30,12.90
2009,07,06,01,31,8.00
2009,07,06,01,32,12.90
2009,07,06,01,33,17.70
2009,07,06,01,34,14.50
2009,07,06,01,35,11.30
2009,07,06,01,36,14.50
2009,07,06,01,37,9.70
2009,07,06,01,38,12.90
2009,07,06,01,39,14.50
2009,07,06,01,40,19.30
2009,07,06,01,41,16.10
2009,07,06,01,42,17.70
2009,07,06,01,43,11.30
2009,07,06,01,44,9.70
2009,07,06,01,45,17.70
2009,07,06,01,46,14.50
2009,07,06,01,47,17.70
2009,07,06,01,48,16.10
2009,07,06,01,49,11.30
2009,07,06,01,50,11.30
2009,07,06,01,51,17.70
2009,07,06,01,52,19.30
2009,07,06,01,53,8.00
2009,07,06,01,54,11.30
2009,07,06,01,55,9.70
2009,07,06,01,56,8.00
2009,07,06,01,57,6.40
2009,07,06,01,58,8.00
2009,07,06,01,59,12.90
2009,07,06,02,00,12.90
2009,07,06,02,01,8.00
2009,07,06,02,02,3.20
2009,07,06,02,03,9.70
2009,07,06,02,04,12.90
2009,07,06,02,05,6.40
2009,07,06,02,06,11.30
2009,07,06,02,07,6.40
2009,07,06,02,08,9.70
2009,07,06,02,09,14.50
2009,07,06,02,10,14.50
2009,07,06,02,11,4.80
2009,07,06,02,12,6.40
2009,07,06,02,13,4.80
2009,07,06,02,14,9.70
2009,07,06,02,15,9.70
2009,07,06,02,16,4.80
2009,07,06,02,17,8.00
2009,07,06,02,18,8.00
2009,07,06,02,19,11.30
2009,07,06,02,20,3.20
2009,07,06,02,21,3.20
2009,07,06,02,22,8.00
2009,07,06,02,23,6.40
2009,07,06,02,24,3.20
2009,07,06,02,25,6.40
2009,07,06,02,26,6.40
2009,07,06,02,27,6.40
2009,07,06,02,28,3.20
2009,07,06,02,29,9.70
2009,07,06,02,30,6.40
2009,07,06,02,31,8.00
2009,07,06,02,32,9.70
2009,07,06,02,33,6.40
2009,07,06,02,34,1.60
2009,07,06,02,35,8.00
2009,07,06,02,36,6.40
2009,07,06,02,37,6.40
2009,07,06,02,38,6.40
2009,07,06,02,39,0.00
2009,07,06,02,40,6.40
2009,07,06,02,41,6.40
2009,07,06,02,42,11.30
2009,07,06,02,43,12.90
2009,07,06,02,44,9.70
2009,07,06,02,45,9.70
2009,07,06,02,46,11.30
2009,07,06,02,47,14.50
2009,07,06,02,48,14.50
2009,07,06,02,49,12.90
2009,07,06,02,50,11.30
2009,07,06,02,51,11.30
2009,07,06,02,52,9.70
2009,07,06,02,53,16.10
2009,07,06,02,54,8.00
2009,07,06,02,55,11.30
2009,07,06,02,56,8.00
2009,07,06,02,57,11.30
2009,07,06,02,58,17.70
2009,07,06,02,59,16.10
2009,07,06,03,00,12.90
2009,07,06,03,01,6.40
2009,07,06,03,02,14.50
2009,07,06,03,03,11.30
2009,07,06,03,04,12.90
2009,07,06,03,05,8.00
2009,07,06,03,06,9.70
2009,07,06,03,07,4.80
2009,07,06,03,08,12.90
2009,07,06,03,09,8.00
2009,07,06,03,10,9.70
2009,07,06,03,11,8.00
2009,07,06,03,12,12.90
2009,07,06,03,13,8.00
2009,07,06,03,14,4.80
2009,07,06,03,15,17.70
2009,07,06,03,16,11.30
2009,07,06,03,17,12.90
2009,07,06,03,18,11.30
2009,07,06,03,19,14.50
2009,07,06,03,20,16.10
2009,07,06,03,21,16.10
2009,07,06,03,22,11.30
2009,07,06,03,23,9.70
2009,07,06,03,24,16.10
2009,07,06,03,25,14.50
2009,07,06,03,26,17.70
2009,07,06,03,27,17.70
2009,07,06,03,28,9.70
2009,07,06,03,29,9.70
2009,07,06,03,30,12.90
2009,07,06,03,31,16.10
2009,07,06,03,32,11.30
2009,07,06,03,33,14.50
2009,07,06,03,34,9.70
2009,07,06,03,35,14.50
2009,07,06,03,36,14.50
2009,07,06,03,37,14.50
2009,07,06,03,38,9.70
2009,07,06,03,39,9.70
2009,07,06,03,40,12.90
2009,07,06,03,41,9.70
2009,07,06,03,42,12.90
2009,07,06,03,43,14.50
2009,07,06,03,44,8.00
2009,07,06,03,45,14.50
2009,07,06,03,46,9.70
2009,07,06,03,47,9.70
2009,07,06,03,48,8.00
2009,07,06,03,49,8.00
2009,07,06,03,50,16.10
2009,07,06,03,51,4.80
2009,07,06,03,52,8.00
2009,07,06,03,53,14.50
2009,07,06,03,54,8.00
2009,07,06,03,55,11.30
2009,07,06,03,56,12.90
2009,07,06,03,57,12.90
2009,07,06,03,58,11.30
2009,07,06,03,59,11.30
2009,07,06,04,00,4.80
2009,07,06,04,01,9.70
2009,07,06,04,02,9.70
2009,07,06,04,03,3.20
2009,07,06,04,04,11.30
2009,07,06,04,05,9.70
2009,07,06,04,06,11.30
2009,07,06,04,07,11.30
2009,07,06,04,08,11.30
2009,07,06,04,09,8.00
2009,07,06,04,10,9.70
2009,07,06,04,11,6.40
2009,07,06,04,12,9.70
2009,07,06,04,13,9.70
2009,07,06,04,14,3.20
2009,07,06,04,15,3.20
2009,07,06,04,16,6.40
2009,07,06,04,17,4.80
2009,07,06,04,18,8.00
2009,07,06,04,19,9.70
2009,07,06,04,20,8.00
2009,07,06,04,21,8.00
2009,07,06,04,22,6.40
2009,07,06,04,23,6.40
2009,07,06,04,24,1.60
2009,07,06,04,25,1.60
2009,07,06,04,26,3.20
2009,07,06,04,27,1.60
2009,07,06,04,28,1.60
2009,07,06,04,29,1.60
2009,07,06,04,30,6.40
2009,07,06,04,31,4.80
2009,07,06,04,32,3.20
2009,07,06,04,33,6.40
2009,07,06,04,34,6.40
2009,07,06,04,35,6.40
2009,07,06,04,36,3.20
2009,07,06,04,37,3.20
2009,07,06,04,38,6.40
2009,07,06,04,39,8.00
2009,07,06,04,40,9.70
2009,07,06,04,41,6.40
2009,07,06,04,42,11.30
2009,07,06,04,43,6.40
2009,07,06,04,44,3.20
2009,07,06,04,45,6.40
2009,07,06,04,46,3.20
2009,07,06,04,47,11.30
2009,07,06,04,48,6.40
2009,07,06,04,49,9.70
2009,07,06,04,50,9.70
2009,07,06,04,51,6.40
2009,07,06,04,52,8.00
2009,07,06,04,53,8.00
2009,07,06,04,54,6.40
2009,07,06,04,55,9.70
2009,07,06,04,56,8.00
2009,07,06,04,57,8.00
2009,07,06,04,58,8.00
2009,07,06,04,59,6.40
2009,07,06,05,00,6.40
2009,07,06,05,01,6.40
2009,07,06,05,02,1.60
2009,07,06,05,03,0.00
2009,07,06,05,04,3.20
2009,07,06,05,05,6.40
2009,07,06,05,06,9.70
2009,07,06,05,07,6.40
2009,07,06,05,08,6.40
2009,07,06,05,09,1.60
2009,07,06,05,10,1.60
2009,07,06,05,11,1.60
2009,07,06,05,12,3.20
2009,07,06,05,13,6.40
2009,07,06,05,14,6.40
2009,07,06,05,15,6.40
2009,07,06,05,16,1.60
2009,07,06,05,17,6.40
2009,07,06,05,18,6.40
2009,07,06,05,19,8.00
2009,07,06,05,20,6.40
2009,07,06,05,21,1.60
2009,07,06,05,22,8.00
2009,07,06,05,23,8.00
2009,07,06,05,24,6.40
2009,07,06,05,25,4.80
2009,07,06,05,26,3.20
2009,07,06,05,27,8.00
2009,07,06,05,28,11.30
2009,07,06,05,29,9.70
2009,07,06,05,30,3.20
2009,07,06,05,31,6.40
2009,07,06,05,32,6.40
2009,07,06,05,33,6.40
2009,07,06,05,34,9.70
2009,07,06,05,35,3.20
2009,07,06,05,36,3.20
2009,07,06,05,37,6.40
2009,07,06,05,38,8.00
2009,07,06,05,39,6.40
2009,07,06,05,40,6.40
2009,07,06,05,41,8.00
2009,07,06,05,42,8.00
2009,07,06,05,43,3.20
2009,07,06,05,44,4.80
2009,07,06,05,45,3.20
2009,07,06,05,46,6.40
2009,07,06,05,47,6.40
2009,07,06,05,48,8.00
2009,07,06,05,49,8.00
2009,07,06,05,50,6.40
2009,07,06,05,51,6.40
2009,07,06,05,52,6.40
2009,07,06,05,53,3.20
2009,07,06,05,54,4.80
2009,07,06,05,55,3.20
2009,07,06,05,56,8.00
2009,07,06,05,57,9.70
2009,07,06,05,58,8.00
2009,07,06,05,59,6.40
2009,07,06,06,00,4.80
2009,07,06,06,01,9.70
2009,07,06,06,02,9.70
2009,07,06,06,03,9.70
2009,07,06,06,04,6.40
2009,07,06,06,05,6.40
2009,07,06,06,06,6.40
2009,07,06,06,07,6.40
2009,07,06,06,08,9.70
2009,07,06,06,09,11.30
2009,07,06,06,10,11.30
2009,07,06,06,11,9.70
2009,07,06,06,12,9.70
2009,07,06,06,13,11.30
2009,07,06,06,14,9.70
2009,07,06,06,15,9.70
2009,07,06,06,16,12.90
2009,07,06,06,17,9.70
2009,07,06,06,18,12.90
2009,07,06,06,19,9.70
2009,07,06,06,20,8.00
2009,07,06,06,21,8.00
2009,07,06,06,22,8.00
2009,07,06,06,23,8.00
2009,07,06,06,24,1.60
2009,07,06,06,25,9.70
2009,07,06,06,26,8.00
2009,07,06,06,27,8.00
2009,07,06,06,28,8.00
2009,07,06,06,29,6.40
2009,07,06,06,30,9.70
2009,07,06,06,31,11.30
2009,07,06,06,32,8.00
2009,07,06,06,33,14.50
2009,07,06,06,34,8.00
2009,07,06,06,35,11.30
2009,07,06,06,36,9.70
2009,07,06,06,37,11.30
2009,07,06,06,38,8.00
2009,07,06,06,39,8.00
2009,07,06,06,40,6.40
2009,07,06,06,41,3.20
2009,07,06,06,42,9.70
2009,07,06,06,43,9.70
2009,07,06,06,44,19.30
2009,07,06,06,45,12.90
2009,07,06,06,46,12.90
2009,07,06,06,47,11.30
2009,07,06,06,48,12.90
2009,07,06,06,49,19.30
2009,07,06,06,50,14.50
2009,07,06,06,51,9.70
2009,07,06,06,52,11.30
2009,07,06,06,53,9.70
2009,07,06,06,54,8.00
2009,07,06,06,55,16.10
2009,07,06,06,56,6.40
2009,07,06,06,57,9.70
2009,07,06,06,58,9.70
2009,07,06,06,59,11.30
2009,07,06,07,00,8.00
2009,07,06,07,01,8.00
2009,07,06,07,02,11.30
2009,07,06,07,03,12.90
2009,07,06,07,04,17.70
2009,07,06,07,05,9.70
2009,07,06,07,06,11.30
2009,07,06,07,07,11.30
2009,07,06,07,08,8.00
2009,07,06,07,09,12.90
2009,07,06,07,10,11.30
2009,07,06,07,11,9.70
2009,07,06,07,12,11.30
2009,07,06,07,13,8.00
2009,07,06,07,14,12.90
2009,07,06,07,15,11.30
2009,07,06,07,16,9.70
2009,07,06,07,17,16.10
2009,07,06,07,18,16.10
2009,07,06,07,19,14.50
2009,07,06,07,20,12.90
2009,07,06,07,21,8.00
2009,07,06,07,22,8.00
2009,07,06,07,23,9.70
2009,07,06,07,24,8.00
2009,07,06,07,25,19.30
2009,07,06,07,26,16.10
2009,07,06,07,27,16.10
2009,07,06,07,28,8.00
2009,07,06,07,29,17.70
2009,07,06,07,30,11.30
2009,07,06,07,31,11.30
2009,07,06,07,32,20.90
2009,07,06,07,33,9.70
2009,07,06,07,34,9.70
2009,07,06,07,35,14.50
2009,07,06,07,36,12.90
2009,07,06,07,37,11.30
2009,07,06,07,38,9.70
2009,07,06,07,39,9.70
2009,07,06,07,40,11.30
2009,07,06,07,41,9.70
2009,07,06,07,42,16.10
2009,07,06,07,43,17.70
2009,07,06,07,44,9.70
2009,07,06,07,45,14.50
2009,07,06,07,46,14.50
2009,07,06,07,47,14.50
2009,07,06,07,48,17.70
2009,07,06,07,49,8.00
2009,07,06,07,50,12.90
2009,07,06,07,51,6.40
2009,07,06,07,52,8.00
2009,07,06,07,53,16.10
2009,07,06,07,54,6.40
2009,07,06,07,55,11.30
2009,07,06,07,56,8.00
2009,07,06,07,57,9.70
2009,07,06,07,58,11.30
2009,07,06,07,59,20.90
2009,07,06,08,00,9.70
2009,07,06,08,01,14.50
2009,07,06,08,02,12.90
2009,07,06,08,03,11.30
2009,07,06,08,04,14.50
2009,07,06,08,05,12.90
2009,07,06,08,06,6.40
2009,07,06,08,07,11.30
2009,07,06,08,08,16.10
2009,07,06,08,09,17.70
2009,07,06,08,10,24.10
2009,07,06,08,11,8.00
2009,07,06,08,12,24.10
2009,07,06,08,13,14.50
2009,07,06,08,14,16.10
2009,07,06,08,15,14.50
2009,07,06,08,16,14.50
2009,07,06,08,17,14.50
2009,07,06,08,18,11.30
2009,07,06,08,19,11.30
2009,07,06,08,20,9.70
2009,07,06,08,21,12.90
2009,07,06,08,22,19.30
2009,07,06,08,23,11.30
2009,07,06,08,24,17.70
2009,07,06,08,25,16.10
2009,07,06,08,26,11.30
2009,07,06,08,27,8.00
2009,07,06,08,28,11.30
2009,07,06,08,29,12.90
2009,07,06,08,30,11.30
2009,07,06,08,31,20.90
2009,07,06,08,32,8.00
2009,07,06,08,33,9.70
2009,07,06,08,34,8.00
2009,07,06,08,35,4.80
2009,07,06,08,36,1.60
2009,07,06,08,37,6.40
2009,07,06,08,38,3.20
2009,07,06,08,39,9.70
2009,07,06,08,40,11.30
2009,07,06,08,41,3.20
2009,07,06,08,42,9.70
2009,07,06,08,43,11.30
2009,07,06,08,44,12.90
2009,07,06,08,45,14.50
2009,07,06,08,46,17.70
2009,07,06,08,47,16.10
2009,07,06,08,48,12.90
2009,07,06,08,49,11.30
2009,07,06,08,50,16.10
2009,07,06,08,51,11.30
2009,07,06,08,52,16.10
2009,07,06,08,53,14.50
2009,07,06,08,54,11.30
2009,07,06,08,55,9.70
2009,07,06,08,56,8.00
2009,07,06,08,57,12.90
2009,07,06,08,58,14.50
2009,07,06,08,59,8.00
2009,07,06,09,00,12.90
2009,07,06,09,01,19.30
2009,07,06,09,02,20.90
2009,07,06,09,03,22.50
2009,07,06,09,04,29.00
2009,07,06,09,05,20.90
2009,07,06,09,06,17.70
2009,07,06,09,07,11.30
2009,07,06,09,08,9.70
2009,07,06,09,09,12.90
2009,07,06,09,10,9.70
2009,07,06,09,11,14.50
2009,07,06,09,12,14.50
2009,07,06,09,13,14.50
2009,07,06,09,14,12.90
2009,07,06,09,15,11.30
2009,07,06,09,16,16.10
2009,07,06,09,17,12.90
2009,07,06,09,18,12.90
2009,07,06,09,19,11.30
2009,07,06,09,20,14.50
2009,07,06,09,21,9.70
2009,07,06,09,22,8.00
2009,07,06,09,23,14.50
2009,07,06,09,24,9.70
2009,07,06,09,25,4.80
2009,07,06,09,26,8.00
2009,07,06,09,27,14.50
2009,07,06,09,28,14.50
2009,07,06,09,29,9.70
2009,07,06,09,30,19.30
2009,07,06,09,31,16.10
2009,07,06,09,32,9.70
2009,07,06,09,33,17.70
2009,07,06,09,34,9.70
2009,07,06,09,35,16.10
2009,07,06,09,36,12.90
2009,07,06,09,37,11.30
2009,07,06,09,38,11.30
2009,07,06,09,39,9.70
2009,07,06,09,40,6.40
2009,07,06,09,41,9.70
2009,07,06,09,42,14.50
2009,07,06,09,43,11.30
2009,07,06,09,44,8.00
2009,07,06,09,45,3.20
2009,07,06,09,46,3.20
2009,07,06,09,47,12.90
2009,07,06,09,48,9.70
2009,07,06,09,49,6.40
2009,07,06,09,50,8.00
2009,07,06,09,51,9.70
2009,07,06,09,52,6.40
2009,07,06,09,53,11.30
2009,07,06,09,54,4.80
2009,07,06,09,55,6.40
2009,07,06,09,56,8.00
2009,07,06,09,57,9.70
2009,07,06,09,58,11.30
2009,07,06,09,59,9.70
2009,07,06,10,00,6.40
2009,07,06,10,01,9.70
2009,07,06,10,02,8.00
2009,07,06,10,03,9.70
2009,07,06,10,04,8.00
2009,07,06,10,05,12.90
2009,07,06,10,06,9.70
2009,07,06,10,07,19.30
2009,07,06,10,08,16.10
2009,07,06,10,09,12.90
2009,07,06,10,10,6.40
2009,07,06,10,11,6.40
2009,07,06,10,12,8.00
2009,07,06,10,13,3.20
2009,07,06,10,14,6.40
2009,07,06,10,15,16.10
2009,07,06,10,16,9.70
2009,07,06,10,17,9.70
2009,07,06,10,18,8.00
2009,07,06,10,19,8.00
2009,07,06,10,20,8.00
2009,07,06,10,21,8.00
2009,07,06,10,22,11.30
2009,07,06,10,23,6.40
2009,07,06,10,24,3.20
2009,07,06,10,25,9.70
2009,07,06,10,26,11.30
2009,07,06,10,27,8.00
2009,07,06,10,28,8.00
2009,07,06,10,29,11.30
2009,07,06,10,30,6.40
2009,07,06,10,31,8.00
2009,07,06,10,32,11.30
2009,07,06,10,33,9.70
2009,07,06,10,34,11.30
2009,07,06,10,35,12.90
2009,07,06,10,36,8.00
2009,07,06,10,37,4.80
2009,07,06,10,38,6.40
2009,07,06,10,39,1.60
2009,07,06,10,40,8.00
2009,07,06,10,41,6.40
2009,07,06,10,42,3.20
2009,07,06,10,43,6.40
2009,07,06,10,44,3.20
2009,07,06,10,45,0.00
2009,07,06,10,46,1.60
2009,07,06,10,47,3.20
2009,07,06,10,48,4.80
2009,07,06,10,49,0.00
2009,07,06,10,50,0.00
2009,07,06,10,51,3.20
2009,07,06,10,52,3.20
2009,07,06,10,53,6.40
2009,07,06,10,54,6.40
2009,07,06,10,55,6.40
2009,07,06,10,56,3.20
2009,07,06,10,57,1.60
2009,07,06,10,58,6.40
2009,07,06,10,59,1.60
2009,07,06,11,00,8.00
2009,07,06,11,01,1.60
2009,07,06,11,02,6.40
2009,07,06,11,03,8.00
2009,07,06,11,04,4.80
2009,07,06,11,05,0.00
2009,07,06,11,06,0.00
2009,07,06,11,07,0.00
2009,07,06,11,08,4.80
2009,07,06,11,09,1.60
2009,07,06,11,10,3.20
2009,07,06,11,11,1.60
2009,07,06,11,12,3.20
2009,07,06,11,13,3.20
2009,07,06,11,14,3.20
2009,07,06,11,15,3.20
2009,07,06,11,16,1.60
2009,07,06,11,17,1.60
2009,07,06,11,18,8.00
2009,07,06,11,19,3.20
2009,07,06,11,20,8.00
2009,07,06,11,21,6.40
2009,07,06,11,22,6.40
2009,07,06,11,23,3.20
2009,07,06,11,24,9.70
2009,07,06,11,25,8.00
2009,07,06,11,26,4.80
2009,07,06,11,27,6.40
2009,07,06,11,28,8.00
2009,07,06,11,29,1.60
2009,07,06,11,30,0.00
2009,07,06,11,31,9.70
2009,07,06,11,32,6.40
2009,07,06,11,33,8.00
2009,07,06,11,34,11.30
2009,07,06,11,35,9.70
2009,07,06,11,36,3.20
2009,07,06,11,37,1.60
2009,07,06,11,38,3.20
2009,07,06,11,39,4.80
2009,07,06,11,40,3.20
2009,07,06,11,41,3.20
2009,07,06,11,42,0.00
2009,07,06,11,43,0.00
2009,07,06,11,44,3.20
2009,07,06,11,45,8.00
2009,07,06,11,46,8.00
2009,07,06,11,47,9.70
2009,07,06,11,48,9.70
2009,07,06,11,49,9.70
2009,07,06,11,50,8.00
2009,07,06,11,51,6.40
2009,07,06,11,52,6.40
2009,07,06,11,53,1.60
2009,07,06,11,54,1.60
2009,07,06,11,55,4.80
2009,07,06,11,56,4.80
2009,07,06,11,57,0.00
2009,07,06,11,58,0.00
2009,07,06,11,59,0.00
2009,07,06,12,00,3.20
2009,07,06,12,01,1.60
2009,07,06,12,02,3.20
2009,07,06,12,03,3.20
2009,07,06,12,04,3.20
2009,07,06,12,05,8.00
2009,07,06,12,06,6.40
2009,07,06,12,07,1.60
2009,07,06,12,08,8.00
2009,07,06,12,09,6.40
2009,07,06,12,10,6.40
2009,07,06,12,11,3.20
2009,07,06,12,12,3.20
2009,07,06,12,13,1.60
2009,07,06,12,14,1.60
2009,07,06,12,15,6.40
2009,07,06,12,16,4.80
2009,07,06,12,17,1.60
2009,07,06,12,18,3.20
2009,07,06,12,19,3.20
2009,07,06,12,20,3.20
2009,07,06,12,21,1.60
2009,07,06,12,22,0.00
2009,07,06,12,23,0.00
2009,07,06,12,24,0.00
2009,07,06,12,25,0.00
2009,07,06,12,26,0.00
2009,07,06,12,27,0.00
2009,07,06,12,28,0.00
2009,07,06,12,29,0.00
2009,07,06,12,30,0.00
2009,07,06,12,31,0.00
2009,07,06,12,32,0.00
2009,07,06,12,33,0.00
2009,07,06,12,34,0.00
2009,07,06,12,35,0.00
2009,07,06,12,36,0.00
2009,07,06,12,37,0.00
2009,07,06,12,38,0.00
2009,07,06,12,39,0.00
2009,07,06,12,40,0.00
2009,07,06,12,41,0.00
2009,07,06,12,42,0.00
2009,07,06,12,43,0.00
2009,07,06,12,44,0.00
2009,07,06,12,45,0.00
2009,07,06,12,46,0.00
2009,07,06,12,47,1.60
2009,07,06,12,48,3.20
2009,07,06,12,49,6.40
2009,07,06,12,50,6.40
2009,07,06,12,51,3.20
2009,07,06,12,52,1.60
2009,07,06,12,53,0.00
2009,07,06,12,54,3.20
2009,07,06,12,55,8.00
2009,07,06,12,56,6.40
2009,07,06,12,57,8.00
2009,07,06,12,58,11.30
2009,07,06,12,59,9.70
2009,07,06,13,00,8.00
2009,07,06,13,01,3.20
2009,07,06,13,02,11.30
2009,07,06,13,03,3.20
2009,07,06,13,04,8.00
2009,07,06,13,05,1.60
2009,07,06,13,06,11.30
2009,07,06,13,07,12.90
2009,07,06,13,08,6.40
2009,07,06,13,09,16.10
2009,07,06,13,10,4.80
2009,07,06,13,11,12.90
2009,07,06,13,12,11.30
2009,07,06,13,13,9.70
2009,07,06,13,14,8.00
2009,07,06,13,15,11.30
2009,07,06,13,16,16.10
2009,07,06,13,17,16.10
2009,07,06,13,18,12.90
2009,07,06,13,19,11.30
2009,07,06,13,20,9.70
2009,07,06,13,21,4.80
2009,07,06,13,22,29.00
2009,07,06,13,23,11.30
2009,07,06,13,24,12.90
2009,07,06,13,25,14.50
2009,07,06,13,26,16.10
2009,07,06,13,27,32.20
2009,07,06,13,28,14.50
2009,07,06,13,29,11.30
2009,07,06,13,30,29.00
2009,07,06,13,31,25.70
2009,07,06,13,32,24.10
2009,07,06,13,33,32.20
2009,07,06,13,34,9.70
2009,07,06,13,35,17.70
2009,07,06,13,36,35.40
2009,07,06,13,37,16.10
2009,07,06,13,38,29.00
2009,07,06,13,39,22.50
2009,07,06,13,40,17.70
2009,07,06,13,41,22.50
2009,07,06,13,42,22.50
2009,07,06,13,43,16.10
2009,07,06,13,44,24.10
2009,07,06,13,45,24.10
2009,07,06,13,46,25.70
2009,07,06,13,47,22.50
2009,07,06,13,48,19.30
2009,07,06,13,49,20.90
2009,07,06,13,50,24.10
2009,07,06,13,51,29.00
2009,07,06,13,52,22.50
2009,07,06,13,53,29.00
2009,07,06,13,54,19.30
2009,07,06,13,55,25.70
2009,07,06,13,56,16.10
2009,07,06,13,57,20.90
2009,07,06,13,58,17.70
2009,07,06,13,59,16.10
2009,07,06,14,00,20.90
2009,07,06,14,01,17.70
2009,07,06,14,02,22.50
2009,07,06,14,03,16.10
2009,07,06,14,04,22.50
2009,07,06,14,05,17.70
2009,07,06,14,06,33.80
2009,07,06,14,07,25.70
2009,07,06,14,08,17.70
2009,07,06,14,09,22.50
2009,07,06,14,10,19.30
2009,07,06,14,11,16.10
2009,07,06,14,12,16.10
2009,07,06,14,13,33.80
2009,07,06,14,14,20.90
2009,07,06,14,15,24.10
2009,07,06,14,16,16.10
2009,07,06,14,17,12.90
2009,07,06,14,18,11.30
2009,07,06,14,19,29.00
2009,07,06,14,20,25.70
2009,07,06,14,21,17.70
2009,07,06,14,22,16.10
2009,07,06,14,23,24.10
2009,07,06,14,24,20.90
2009,07,06,14,25,19.30
2009,07,06,14,26,14.50
2009,07,06,14,27,20.90
2009,07,06,14,28,32.20
2009,07,06,14,29,14.50
2009,07,06,14,30,19.30
2009,07,06,14,31,22.50
2009,07,06,14,37,16.10
2009,07,06,14,38,24.10
2009,07,06,14,39,25.70
2009,07,06,14,40,9.70
2009,07,06,14,41,11.30
2009,07,06,14,42,25.70
2009,07,06,14,43,16.10
2009,07,06,14,44,19.30
2009,07,06,14,45,25.70
2009,07,06,14,46,19.30
2009,07,06,14,47,25.70
2009,07,06,14,48,12.90
2009,07,06,14,49,12.90
2009,07,06,14,50,14.50
2009,07,06,14,51,12.90
2009,07,06,14,52,16.10
2009,07,06,14,53,14.50
2009,07,06,14,54,11.30
2009,07,06,14,55,20.90
2009,07,06,14,56,12.90
2009,07,06,14,57,16.10
2009,07,06,14,58,11.30
2009,07,06,14,59,12.90
2009,07,06,15,00,17.70
2009,07,06,15,01,8.00
2009,07,06,15,02,11.30
2009,07,06,15,03,11.30
2009,07,06,15,04,12.90
2009,07,06,15,05,11.30
2009,07,06,15,06,14.50
2009,07,06,15,07,16.10
2009,07,06,15,08,14.50
2009,07,06,15,09,14.50
2009,07,06,15,10,16.10
2009,07,06,15,11,11.30
2009,07,06,15,12,9.70
2009,07,06,15,13,24.10
2009,07,06,15,14,17.70
2009,07,06,15,15,12.90
2009,07,06,15,16,14.50
2009,07,06,15,17,16.10
2009,07,06,15,18,16.10
2009,07,06,15,19,16.10
2009,07,06,15,20,17.70
2009,07,06,15,21,16.10
2009,07,06,15,22,17.70
2009,07,06,15,23,8.00
2009,07,06,15,24,12.90
2009,07,06,15,25,17.70
2009,07,06,15,26,16.10
2009,07,06,15,27,17.70
2009,07,06,15,28,19.30
2009,07,06,15,29,20.90
2009,07,06,15,30,9.70
2009,07,06,15,31,12.90
2009,07,06,15,32,20.90
2009,07,06,15,33,22.50
2009,07,06,15,34,12.90
2009,07,06,15,35,25.70
2009,07,06,15,36,14.50
2009,07,06,15,37,17.70
2009,07,06,15,38,16.10
2009,07,06,15,39,20.90
2009,07,06,15,40,19.30
2009,07,06,15,41,24.10
2009,07,06,15,42,16.10
2009,07,06,15,43,14.50
2009,07,06,15,44,19.30
2009,07,06,15,45,17.70
2009,07,06,15,46,19.30
2009,07,06,15,47,12.90
2009,07,06,15,48,20.90
2009,07,06,15,49,24.10
2009,07,06,15,50,17.70
2009,07,06,15,51,11.30
2009,07,06,15,52,22.50
2009,07,06,15,53,25.70
2009,07,06,15,54,17.70
2009,07,06,15,55,20.90
2009,07,06,15,56,17.70
2009,07,06,15,57,20.90
2009,07,06,15,58,9.70
2009,07,06,15,59,19.30
2009,07,06,16,00,20.90
2009,07,06,16,01,17.70
2009,07,06,16,02,19.30
2009,07,06,16,03,16.10
2009,07,06,16,04,11.30
2009,07,06,16,05,24.10
2009,07,06,16,06,16.10
2009,07,06,16,07,22.50
2009,07,06,16,08,17.70
2009,07,06,16,09,9.70
2009,07,06,16,10,14.50
2009,07,06,16,11,12.90
2009,07,06,16,12,9.70
2009,07,06,16,13,16.10
2009,07,06,16,14,24.10
2009,07,06,16,15,22.50
2009,07,06,16,16,19.30
2009,07,06,16,17,12.90
2009,07,06,16,18,19.30
2009,07,06,16,19,22.50
2009,07,06,16,20,12.90
2009,07,06,16,21,16.10
2009,07,06,16,22,20.90
2009,07,06,16,23,22.50
2009,07,06,16,24,25.70
2009,07,06,16,25,16.10
2009,07,06,16,26,24.10
2009,07,06,16,27,14.50
2009,07,06,16,28,29.00
2009,07,06,16,29,19.30
2009,07,06,16,30,17.70
2009,07,06,16,31,9.70
2009,07,06,16,32,20.90
2009,07,06,16,33,17.70
2009,07,06,16,34,19.30
2009,07,06,16,35,20.90
2009,07,06,16,36,16.10
2009,07,06,16,37,25.70
2009,07,06,16,38,17.70
2009,07,06,16,39,16.10
2009,07,06,16,40,14.50
2009,07,06,16,41,25.70
2009,07,06,16,42,17.70
2009,07,06,16,43,14.50
2009,07,06,16,44,16.10
2009,07,06,16,45,19.30
2009,07,06,16,46,17.70
2009,07,06,16,47,16.10
2009,07,06,16,48,24.10
2009,07,06,16,49,19.30
2009,07,06,16,50,16.10
2009,07,06,16,51,16.10
2009,07,06,16,52,12.90
2009,07,06,16,53,16.10
2009,07,06,16,54,17.70
2009,07,06,16,55,19.30
2009,07,06,16,56,9.70
2009,07,06,16,57,12.90
2009,07,06,16,58,17.70
2009,07,06,16,59,14.50
2009,07,06,17,00,11.30
2009,07,06,17,01,17.70
2009,07,06,17,02,11.30
2009,07,06,17,03,11.30
2009,07,06,17,04,11.30
2009,07,06,17,05,9.70
2009,07,06,17,06,14.50
2009,07,06,17,07,9.70
2009,07,06,17,08,22.50
2009,07,06,17,09,12.90
2009,07,06,17,10,14.50
2009,07,06,17,11,16.10
2009,07,06,17,12,11.30
2009,07,06,17,13,22.50
2009,07,06,17,14,9.70
2009,07,06,17,15,12.90
2009,07,06,17,16,14.50
2009,07,06,17,17,16.10
2009,07,06,17,18,17.70
2009,07,06,17,19,8.00
2009,07,06,17,20,19.30
2009,07,06,17,21,12.90
2009,07,06,17,22,20.90
2009,07,06,17,23,16.10
2009,07,06,17,24,16.10
2009,07,06,17,25,20.90
2009,07,06,17,26,16.10
2009,07,06,17,27,12.90
2009,07,06,17,28,11.30
2009,07,06,17,29,22.50
2009,07,06,17,30,24.10
2009,07,06,17,31,22.50
2009,07,06,17,32,14.50
2009,07,06,17,33,17.70
2009,07,06,17,34,17.70
2009,07,06,17,35,16.10
2009,07,06,17,36,16.10
2009,07,06,17,37,11.30
2009,07,06,17,38,17.70
2009,07,06,17,39,17.70
2009,07,06,17,40,22.50
2009,07,06,17,41,19.30
2009,07,06,17,42,16.10
2009,07,06,17,43,19.30
2009,07,06,17,44,22.50
2009,07,06,17,45,14.50
2009,07,06,17,46,16.10